Location: Hamilton
(37.7830°S, 175.2830°E)
Time: 19:59:05
(UTC+12:00)

CZ-2D R/B - Pass Details

Date: 24 January 2019
Orbit: 523 x 539 km, 97.4° (Epoch: 21 April)

Event Time Altitude Azimuth Distance (km) Brightness Sun altitude
Rises 21:23:44 0° 172° (S) 2,734 7.2 -8.7°
Reaches altitude 10° 21:25:54 10° 175° (S) 1,833 6.4 -9.0°
Maximum altitude 21:29:49 64° 256° (WSW) 610 3.8 -9.7°
Drops below altitude 10° 21:33:41 10° 337° (NNW) 1,805 5.8 -10.3°
Sets 21:35:48 0° 340° (NNW) 2,687 6.7 -10.7°
